Zurück zum Katalog

YAOGAN-43 03B

AktivMilitärVLEO
NORAD 61618·PAYLOAD·🇨🇳 China

Gestartet Oct 23, 2024 von Xichang Satellite Launch Center

Loading…

Nächste Überflüge (nächste 24 Stunden)

TLE

AktuellSource: Space-Track

Epoche: Sep 14, 2026, 17:23 UTC

1 61618U 24190B   26257.72496756  .00006816  00000-0  28242-3 0  9998
2 61618  34.9900 354.4510 0007042  99.3735 260.7776 15.23191833105524

Verfolge YAOGAN-43 03B in Echtzeit mit AllMySat

Download on the App Store